Date String (YYYY-MM-DD hh:mm:ss) UTC,Instrument flags,Ambient pressure (hPa),Sample flow (lpm),Bypass flow (lpm),Sample temperature (°C),Ambient temperature (°C),ASC tube jacket temperature (°C),LED temperature (°C),Box temperature (°C),Sample RH (%),Span deviation,Mass concentration (μg/m³),Mass concentration (μg/m³),Mass concentration (μg/m³)
DateTimeUTC,F1_M11,P_M11,Q1_M11,Q2_M11,T1_M11,T2_M11,T3_M11,T4_M11,T5_M11,U1_M11,ZSPAN_M11,X0_M11,X2_M11,X1_M11
2023-03-08 12:00:00,,0826.7,5.00,0.00,22.5,20.8,00.0,31.3,24.1,16.6,-002.6,0016.97,0011.16,0010.52
2023-03-08 12:01:00,,0826.7,4.98,0.00,22.5,20.7,00.0,31.3,24.1,16.7,-002.7,0016.48,0011.15,0010.52
2023-03-08 12:02:00,,0826.7,5.00,0.00,22.4,20.6,00.0,31.2,24.1,16.7,-002.6,0015.33,0011.18,0010.53
2023-03-08 12:03:00,,0826.7,5.00,0.00,22.4,20.6,00.0,31.2,24.1,16.7,-002.4,0015.26,0011.17,0010.52
2023-03-08 12:04:00,,0826.6,5.01,0.00,22.4,20.6,00.0,31.2,24.0,16.7,-002.6,0015.16,0011.16,0010.53
2023-03-08 12:05:00,,0826.6,5.00,0.00,22.4,20.5,00.0,31.2,24.0,16.8,-002.6,0015.69,0011.19,0010.53
2023-03-08 12:06:00,,0826.6,5.00,0.00,22.4,20.5,00.0,31.2,24.0,16.8,-002.5,0016.12,0011.23,0010.55
2023-03-08 12:07:00,,0826.6,5.00,0.00,22.3,20.5,00.0,31.2,24.0,16.8,-002.3,0016.02,0011.22,0010.56
2023-03-08 12:08:00,,0826.7,5.02,0.00,22.4,21.4,00.0,31.1,24.2,16.8,-002.0,0015.87,0011.16,0010.56
2023-03-08 12:09:00,,0826.6,5.00,0.00,22.5,22.5,00.0,31.2,24.4,16.7,-001.8,0015.87,0011.13,0010.55
2023-03-08 12:10:00,,0826.6,5.01,0.00,22.6,23.0,00.0,31.2,24.6,16.6,-002.0,0015.55,0011.17,0010.56
2023-03-08 12:11:00,,0826.6,5.00,0.00,22.6,22.6,00.0,31.2,24.5,16.5,-001.9,0015.18,0011.18,0010.57
2023-03-08 12:12:00,,0826.6,5.01,0.00,22.6,22.2,00.0,31.2,24.5,16.5,-001.8,0015.29,0011.22,0010.58
2023-03-08 12:13:00,,0826.6,5.00,0.00,22.6,21.9,00.0,31.3,24.4,16.5,-001.7,0015.23,0011.21,0010.58
2023-03-08 12:14:00,,0826.6,5.00,0.00,22.6,21.7,00.0,31.3,24.4,16.5,-001.8,0015.19,0011.20,0010.58
2023-03-08 12:15:00,,0826.6,5.00,0.00,22.6,21.4,00.0,31.3,24.3,16.5,-001.7,0016.34,0011.21,0010.60
2023-03-08 12:16:00,,0826.6,5.00,0.00,22.6,21.3,00.0,31.3,24.3,16.5,-001.7,0016.54,0011.23,0010.61
2023-03-08 12:17:00,,0826.5,5.00,0.00,22.6,21.1,00.0,31.3,24.3,16.6,-002.0,0016.19,0011.23,0010.62
2023-03-08 12:18:00,,0826.6,4.98,0.00,22.6,21.0,00.0,31.3,24.3,16.6,-002.0,0016.20,0011.23,0010.64
2023-03-08 12:19:00,,0826.6,5.02,0.00,22.5,20.9,00.0,31.3,24.2,16.6,-002.0,0016.29,0011.25,0010.66
2023-03-08 12:20:00,,0826.6,5.01,0.00,22.5,20.9,00.0,31.3,24.2,16.6,-002.1,0016.32,0011.28,0010.69
2023-03-08 12:21:00,,0826.6,5.01,0.00,22.5,20.8,00.0,31.3,24.2,16.7,-002.0,0016.05,0011.25,0010.71
2023-03-08 12:22:00,,0826.6,5.00,0.00,22.5,20.7,00.0,31.2,24.2,16.7,-001.9,0015.99,0011.24,0010.71
2023-03-08 12:23:00,,0826.6,5.00,0.00,22.5,20.7,00.0,31.2,24.1,16.7,-001.8,0015.94,0011.26,0010.74
2023-03-08 12:24:00,,0826.6,4.99,0.00,22.4,20.6,00.0,31.2,24.1,16.7,-001.8,0015.97,0011.28,0010.76
2023-03-08 12:25:00,,0826.6,5.00,0.00,22.4,20.6,00.0,31.2,24.1,16.8,-001.7,0015.96,0011.30,0010.79
2023-03-08 12:26:00,,0826.7,5.02,0.00,22.4,20.6,00.0,31.2,24.1,16.8,-001.7,0015.24,0011.33,0010.81
2023-03-08 12:27:00,,0826.7,5.00,0.00,22.4,20.5,00.0,31.2,24.1,16.8,-001.7,0014.73,0011.32,0010.82
2023-03-08 12:28:00,,0826.6,5.01,0.00,22.4,20.5,00.0,31.2,24.0,16.8,-001.5,0014.58,0011.33,0010.85
2023-03-08 12:29:00,,0826.6,5.02,0.00,22.4,21.1,00.0,31.2,24.2,16.8,-001.6,0014.54,0011.35,0010.86
2023-03-08 12:30:00,,0826.7,5.03,0.00,22.5,22.2,00.0,31.2,24.4,16.7,-001.6,0014.47,0011.34,0010.89
2023-03-08 12:31:00,,0826.7,4.99,0.00,22.6,23.0,00.0,31.2,24.6,16.6,-001.7,0014.49,0011.34,0010.88
2023-03-08 12:32:00,,0826.7,4.98,0.00,22.6,22.8,00.0,31.2,24.6,16.6,-001.6,0014.61,0011.37,0010.90
2023-03-08 12:33:00,,0826.6,5.01,0.00,22.7,22.4,00.0,31.2,24.5,16.6,-001.8,0014.59,0011.40,0010.92
2023-03-08 12:34:00,,0826.7,4.99,0.00,22.7,22.1,00.0,31.3,24.5,16.6,-001.8,0014.61,0011.40,0010.92
2023-03-08 12:35:00,,0826.7,5.00,0.00,22.7,21.8,00.0,31.3,24.4,16.6,-001.8,0015.09,0011.43,0010.92
2023-03-08 12:36:00,,0826.7,5.00,0.00,22.6,21.6,00.0,31.3,24.4,16.6,-002.0,0015.20,0011.43,0010.93
2023-03-08 12:37:00,,0826.7,5.00,0.00,22.6,21.4,00.0,31.3,24.3,16.6,-001.9,0015.12,0011.44,0010.95
2023-03-08 12:38:00,,0826.7,5.00,0.00,22.6,21.2,00.0,31.3,24.3,16.6,-001.8,0014.88,0011.48,0010.98
2023-03-08 12:39:00,,0826.7,5.00,0.00,22.6,21.1,00.0,31.3,24.3,16.6,-001.7,0014.85,0011.47,0010.98
2023-03-08 12:40:00,,0826.7,5.00,0.00,22.6,21.0,00.0,31.3,24.2,16.6,-001.5,0014.86,0011.48,0011.02
2023-03-08 12:41:00,,0826.7,4.99,0.00,22.5,20.9,00.0,31.3,24.2,16.6,-001.6,0015.09,0011.48,0011.03
2023-03-08 12:42:00,,0826.7,5.00,0.00,22.5,20.8,00.0,31.3,24.2,16.7,-001.6,0015.04,0011.52,0011.08
2023-03-08 12:43:00,,0826.7,5.02,0.00,22.5,20.8,00.0,31.3,24.1,16.7,-001.6,0015.01,0011.52,0011.10
2023-03-08 12:44:00,,0826.7,5.00,0.00,22.5,20.7,00.0,31.3,24.1,16.7,-001.5,0015.12,0011.56,0011.14
2023-03-08 12:45:00,,0826.7,5.01,0.00,22.5,20.7,00.0,31.2,24.1,16.7,-001.5,0015.09,0011.56,0011.14
2023-03-08 12:46:00,,0826.7,5.01,0.00,22.4,20.7,00.0,31.2,24.1,16.7,-001.6,0014.69,0011.56,0011.17
2023-03-08 12:47:00,,0826.7,4.99,0.00,22.4,20.6,00.0,31.2,24.1,16.8,-001.7,0014.57,0011.58,0011.20
2023-03-08 12:48:00,,0826.7,5.01,0.00,22.4,20.6,00.0,31.2,24.1,16.8,-001.9,0014.49,0011.54,0011.19
2023-03-08 12:49:00,,0826.7,5.00,0.00,22.4,20.6,00.0,31.2,24.0,16.8,-002.0,0014.39,0011.52,0011.20
2023-03-08 12:50:00,,0826.7,4.99,0.00,22.4,20.6,00.0,31.2,24.0,16.8,-002.1,0014.48,0011.55,0011.22
2023-03-08 12:51:00,,0826.7,5.00,0.00,22.4,20.8,00.0,31.2,24.1,16.8,-002.2,0014.63,0011.59,0011.23
2023-03-08 12:52:00,,0826.7,4.97,0.00,22.4,21.7,00.0,31.2,24.2,16.8,-002.3,0014.46,0011.66,0011.26
2023-03-08 12:53:00,,0826.7,5.01,0.00,22.5,22.8,00.0,31.2,24.5,16.7,-002.2,0014.48,0011.67,0011.27
2023-03-08 12:54:00,,0826.7,5.01,0.00,22.6,22.9,00.0,31.2,24.6,16.6,-002.3,0014.44,0011.66,0011.29
2023-03-08 12:55:00,,0826.7,5.02,0.00,22.7,22.5,00.0,31.2,24.5,16.5,-002.4,0014.39,0011.67,0011.30
2023-03-08 12:56:00,,0826.7,5.02,0.00,22.7,22.2,00.0,31.3,24.5,16.5,-002.3,0014.38,0011.67,0011.32
2023-03-08 12:57:00,,0826.7,4.98,0.00,22.7,21.9,00.0,31.3,24.5,16.5,-002.3,0014.56,0011.71,0011.35
2023-03-08 12:58:00,,0826.7,5.00,0.00,22.6,21.6,00.0,31.3,24.4,16.5,-002.2,0014.56,0011.71,0011.36
2023-03-08 12:59:00,,0826.7,4.99,0.00,22.6,21.4,00.0,31.3,24.4,16.5,-002.1,0014.70,0011.80,0011.39
